Weather History for Hamilton, OH

Change the Weather History Date:

Saturday, September 22, 2012

  Actual Average (KCVG) Record (KCVG)
Temperature  
Mean Temperature 58 °F 65 °F  
Max Temperature 73 °F 76 °F 95 °F (1895)
Min Temperature 39 °F 54 °F 34 °F (1918)
Degree Days  
Heating Degree Days 7 3  
Month to date heating degree days 25  
Since 1 July heating degree days 25  
Cooling Degree Days 0 3  
Month to date cooling degree days 119  
Year to date cooling degree days 1087  
Growing Degree Days 8 (Base 50)    
Moisture  
Dew Point 50 °F    
Average Humidity 80    
Maximum Humidity 100    
Minimum Humidity 28    
Precipitation  
Precipitation 0.47 in 0.09 in 2.37 in (2006)
Month to date precipitation 1.90  
Year to date precipitation 31.69  
Snow  
Snow 0.00 in 0.00 in - ()
Month to date snowfall 0.0  
Since 1 July snowfall 0.0  
Since 1 September snowfall 0.0  
Snow Depth -    
Sea Level Pressure  
Sea Level Pressure 29.91 in    
Wind  
Wind Speed 3 mph (WNW)    
Max Wind Speed 23 mph    
Max Gust Speed 36 mph    
Visibility 7 miles    
Events Fog , Rain    
T = Trace of Precipitation, MM = Missing Value Source: NWS Daily Summary

Daily Weather History Graph

Daily Weather History Graph

Search for Another Location

Airport:

Trip Planner

Search our weather history database for the weather conditions in past years. The results will help you decide how hot, cold, wet, or windy it might be!

Date:

Astronomy

Sep. 22, 2012 Rise Set
Actual Time 7:26 AM EDT 7:34 PM EDT
Civil Twilight 6:59 AM EDT 8:01 PM EDT
Nautical Twilight 6:28 AM EDT 8:32 PM EDT
Astronomical Twilight 5:56 AM EDT 9:04 PM EDT
Moon 2:41 PM EDT (9/22) No Moon Set
Length of Visible Light 13h 01m
Length of Day
12h 08m
Waxing Crescent, 48% of the Moon is Illuminated
Sep 22
Waxing Crescent
Sep 22
First Quarter
Sep 29
Full
Oct 8
Last Quarter
Oct 15
New

Hourly Weather History & Observations

Time (EDT) Temp. Windchill Dew Point Humidity Pressure Visibility Wind Dir Wind Speed Gust Speed Precip Events Conditions
12:37 AM 55.4 °F - 53.6 °F 94% 29.80 in 5.0 mi Calm Calm - 0.20 in Rain Light Rain
12:53 AM 55.9 °F - 54.0 °F 93% 29.77 in 6.0 mi SE 3.5 mph - 0.24 in Rain Light Rain
1:51 AM 57.2 °F - 55.4 °F 94% 29.80 in 2.0 mi Calm Calm - 0.13 in Rain Rain
1:53 AM 57.9 °F - 55.9 °F 93% 29.80 in 2.0 mi Calm Calm - 0.14 in Rain Heavy Rain
2:12 AM 57.2 °F - 57.2 °F 100% 29.79 in 4.0 mi Calm Calm - 0.07 in Rain Rain
2:53 AM 57.9 °F - 57.0 °F 97% 29.78 in 6.0 mi Calm Calm - 0.09 in Rain Light Rain
3:44 AM 55.4 °F - 55.4 °F 100% 29.80 in 1.8 mi Calm Calm - 0.00 in   Partly Cloudy
3:53 AM 55.9 °F - 54.0 °F 93% 29.80 in 2.0 mi Calm Calm - 0.00 in   Clear
4:14 AM 55.4 °F - 53.6 °F 94% 29.80 in 2.5 mi Calm Calm - N/A   Partly Cloudy
4:19 AM 55.4 °F - 53.6 °F 94% 29.81 in 1.2 mi Calm Calm - N/A   Clear
4:29 AM 53.6 °F - 53.6 °F 100% 29.81 in 0.2 mi Calm Calm - N/A Fog Fog
4:53 AM 55.0 °F - 54.0 °F 96% 29.81 in 0.8 mi Calm Calm - N/A   Overcast
4:58 AM 55.4 °F - 55.4 °F 100% 29.82 in 1.8 mi Calm Calm - N/A   Overcast
5:01 AM 55.4 °F - 55.4 °F 100% 29.82 in 3.0 mi Calm Calm - N/A   Overcast
5:53 AM 59.0 °F - 57.9 °F 96% 29.83 in 10.0 mi WNW 5.8 mph - N/A   Overcast
6:02 AM 59.0 °F - 57.2 °F 94% 29.84 in 10.0 mi WNW 6.9 mph - N/A   Overcast
6:11 AM 59.0 °F - 57.2 °F 94% 29.85 in 10.0 mi WNW 5.8 mph - N/A   Overcast
6:37 AM 59.0 °F - 55.4 °F 88% 29.86 in 10.0 mi NW 6.9 mph - N/A   Overcast
6:53 AM 59.0 °F - 55.9 °F 90% 29.86 in 10.0 mi WNW 6.9 mph - N/A   Overcast
7:53 AM 55.9 °F - 52.0 °F 87% 29.91 in 10.0 mi WNW 8.1 mph - N/A   Overcast
8:08 AM 55.4 °F - 51.8 °F 88% 29.91 in 10.0 mi WNW 5.8 mph - N/A   Overcast
8:32 AM 55.4 °F - 51.8 °F 88% 29.92 in 10.0 mi West 3.5 mph - N/A   Scattered Clouds
9:01 AM 57.2 °F - 51.8 °F 82% 29.93 in 10.0 mi Variable 5.8 mph - N/A   Scattered Clouds
9:53 AM 57.9 °F - 51.1 °F 78% 29.94 in 10.0 mi Variable 5.8 mph - N/A   Mostly Cloudy
10:14 AM 57.2 °F - 51.8 °F 82% 29.95 in 10.0 mi West 5.8 mph - N/A   Mostly Cloudy
10:31 AM 59.0 °F - 51.8 °F 77% 29.95 in 10.0 mi WNW 8.1 mph - N/A   Scattered Clouds
10:53 AM 61.0 °F - 52.0 °F 72% 29.94 in 10.0 mi Variable 5.8 mph - N/A   Partly Cloudy
11:53 AM 64.9 °F - 54.0 °F 68% 29.94 in 10.0 mi Variable 3.5 mph - N/A   Clear
12:53 PM 68.0 °F - 53.1 °F 59% 29.94 in 10.0 mi West 8.1 mph - N/A   Clear
1:53 PM 72.0 °F - 48.9 °F 44% 29.92 in 10.0 mi WSW 15.0 mph 24.2 mph N/A   Scattered Clouds
2:53 PM 69.1 °F - 46.0 °F 44% 29.91 in 10.0 mi WSW 10.4 mph 23.0 mph N/A   Mostly Cloudy
3:53 PM 71.1 °F - 43.0 °F 36% 29.94 in 10.0 mi West 19.6 mph 34.5 mph N/A   Partly Cloudy
4:53 PM 64.0 °F - 41.0 °F 43% 30.01 in 10.0 mi NW 23.0 mph 35.7 mph N/A   Clear
5:53 PM 60.1 °F - 27.0 °F 28% 30.07 in 10.0 mi NW 18.4 mph 29.9 mph N/A   Clear
6:53 PM 57.0 °F - 30.9 °F 37% 30.10 in 10.0 mi NW 12.7 mph - N/A   Clear
7:53 PM 52.0 °F - 32.0 °F 47% 30.13 in 10.0 mi WNW 6.9 mph - N/A   Clear
8:53 PM 48.0 °F - 36.0 °F 63% 30.15 in 10.0 mi WNW 3.5 mph - N/A   Clear
9:53 PM 44.1 °F 42.5 °F 37.0 °F 76% 30.16 in 10.0 mi West 3.5 mph - N/A   Clear
11:53 PM 39.0 °F - 37.0 °F 93% 30.18 in 10.0 mi Calm Calm - N/A   Clear